User: anonymous   Login
Location: Abraham Lincoln Continuation High School
(33.9711°N, 117.3662°W)
Time: 21:20:15
(UTC+00:00)
Language:

Cosmos 1536 Rocket - Orbit

View from above orbital plane
View from above orbital plane
View from above satellite
View from above satellite

Ground track
Ground track

The orbit data is extracted from the following two-line orbital elements,

1 14700U 84013B   20327.80480323  .00000108  00000-0  10213-4 0  9990
2 14700  82.5390  64.6406 0020546 148.1797 330.7911 14.83305138986970
Epoch (UTC): 22 November 2020 19:18:54
Eccentricity: 0.0020546
inclination: 82.5390°
perigee height: 604 km
apogee height: 633 km
right ascension of ascending node: 64.6406°
argument of perigee: 148.1797°
revolutions per day: 14.83305138
mean anomaly at epoch: 330.7911°
orbit number at epoch: 98697

The dashed part of the orbit path shows where the satellite is in the earth's shadow,  

DLR